Location: ????????
(55.4000°N, 39.1167°E)
Time: 08:18:58
(UTC+00:00)

Cosmos 1302 Rocket - Visible Passes

Search period start: 09 June 2026 00:00
Search period end: 19 June 2026 00:00
Orbit: 752 x 772 km, 74.0° (Epoch: 8 June)

Date Brightness Start Highest point End Pass type
(mag) Time Alt. Az. Time Alt. Az. Time Alt. Az.
9 Jun 6.5 19:27:31 10° N 19:30:38 16° NNE 19:33:46 10° ENE visible
9 Jun 5.1 21:08:57 10° NNW 21:14:00 44° NE 21:19:03 10° SE visible
9 Jun 4.5 22:51:01 10° NW 22:55:59 42° WSW 23:00:55 10° S visible
10 Jun 5.6 20:30:02 10° NNW 20:34:44 31° NE 20:39:26 10° ESE visible
10 Jun 4.1 22:11:51 10° NNW 22:17:06 66° WSW 22:22:13 11° SSE visible
11 Jun 6.0 19:51:09 10° NNW 19:55:22 23° NE 19:59:34 10° E visible
11 Jun 4.1 21:32:48 10° NNW 21:38:07 83° ENE 21:43:24 10° SSE visible
11 Jun 5.5 23:15:36 10° NW 23:19:26 21° W 23:23:15 10° SW visible
12 Jun 6.4 19:12:17 10° N 19:15:54 18° NNE 19:19:29 10° ENE visible
12 Jun 4.6 20:53:48 10° NNW 20:59:01 56° NE 21:04:12 10° SE visible
12 Jun 5.0 22:36:06 10° NW 22:40:43 32° WSW 22:44:52 12° SSW visible
13 Jun 5.2 20:14:52 10° NNW 20:19:49 39° NE 20:24:45 10° ESE visible
13 Jun 4.4 21:56:50 10° NW 22:01:55 49° WSW 22:06:13 14° S visible
14 Jun 5.7 19:35:57 10° NNW 19:40:31 28° NE 19:45:03 10° ESE visible
14 Jun 4.0 21:17:42 10° NNW 21:23:00 76° WSW 21:27:36 14° SSE visible
14 Jun 5.9 23:01:05 10° WNW 23:04:03 15° W 23:07:02 10° SW visible
15 Jun 4.2 20:38:40 10° NNW 20:43:58 73° ENE 20:49:01 11° SE visible
15 Jun 5.4 22:21:16 10° NW 22:25:25 24° W 22:29:07 12° SSW visible
16 Jun 4.7 19:59:42 10° NNW 20:04:51 49° NE 20:09:58 10° SE visible
16 Jun 4.9 21:41:52 10° NW 21:46:41 37° WSW 21:50:35 15° SSW visible
17 Jun 5.3 19:20:46 10° NNW 19:25:36 35° NE 19:30:25 10° ESE visible
17 Jun 4.3 21:02:39 10° NNW 21:07:50 57° WSW 21:12:04 15° S visible
17 Jun 6.2 22:47:17 10° WNW 22:48:37 11° W 22:49:58 10° WSW visible
18 Jun 4.0 20:23:34 10° NNW 20:28:53 86° WSW 20:33:35 13° SSE visible
18 Jun 5.8 22:06:37 10° NW 22:10:04 18° W 22:13:30 10° SW visible
